Location: Unspecified
(0.0000°N, 0.0000°E)
Time: 16:24:21
(UTC+00:00)

ISS - Pass Details

Date: 21 March 2014
Orbit: 417 x 425 km, 51.6° (Epoch: 29 March)

Event Time Altitude Azimuth Distance (km) Brightness Sun altitude
Exits shadow 04:21:49 24° 46° (NE) 964 -1.5 -26.4°
Maximum altitude 04:22:03 24° 52° (NE) 956 -1.5 -26.3°
Drops below altitude 10° 04:24:50 10° 109° (ESE) 1,516 0.0 -25.6°
Sets 04:27:07 0° 124° (SE) 2,363 0.9 -25.1°
